EW6920 Weather Reports


Display with metric or nautical units.
time (UTC)temp
F
wind
direction
speed
MPH
gust
MPH
rain 1hr
in
rain 24hr
in
rain mn
in
humidity
%
barometer
mb
20260507093045 35 271 3.0 7.0 0.00 0.00 0.00 73 1009.4
20260507091548 35 281 3.0 7.0 0.00 0.00 0.00 73 1009.5
20260507090046 36 290 3.0 7.0 0.00 0.00 0.00 74 1009.6
20260507084555 36 272 3.0 9.0 0.00 0.00 0.00 74 1009.6
20260507083045 36 259 4.0 9.0 0.00 0.00 0.00 75 1009.7
20260507081545 36 276 4.0 7.0 0.00 0.00 0.00 74 1009.7
20260507080043 36 288 4.0 8.0 0.00 0.00 0.00 74 1009.7
20260507074548 36 259 3.0 7.0 0.00 0.00 0.00 74 1009.7
20260507073047 36 253 4.0 6.0 0.00 0.00 0.00 73 1009.8
20260507071548 36 238 3.0 6.0 0.00 0.00 0.00 74 1009.9
20260507070057 36 243 3.0 7.0 0.00 0.00 0.00 75 1010.1
20260507064547 36 290 4.0 7.0 0.00 0.00 0.00 73 1010.3
20260507063052 36 255 3.0 8.0 0.00 0.00 0.00 75 1010.4
20260507061541 36 265 4.0 7.0 0.00 0.00 0.00 72 1010.6
20260507060047 36 282 3.0 8.0 0.00 0.00 0.00 72 1010.7
20260507054546 37 278 5.0 10.0 0.00 0.00 0.00 72 1010.8
20260507053045 37 264 2.0 7.0 0.00 0.00 0.00 71 1010.9
20260507051544 37 252 4.0 7.0 0.00 0.00 0.00 73 1011.0
20260507044551 37 261 4.0 8.0 0.00 0.00 0.00 74 1011.1
20260507043045 37 257 3.0 6.0 0.00 0.00 0.00 75 1011.2
20260507041546 37 253 2.0 4.0 0.00 0.00 0.00 74 1011.2
20260507040049 37 234 3.0 5.0 0.00 0.00 0.00 75 1011.2
20260507034544 37 224 3.0 5.0 0.00 0.00 0.00 74 1011.3
20260507033049 36 247 3.0 4.0 0.00 0.00 0.00 74 1011.3
20260507031544 36 253 3.0 5.0 0.00 0.00 0.00 73 1011.4
20260507030046 36 263 1.0 4.0 0.00 0.00 0.00 71 1011.3
20260507024550 37 0 1.0 3.0 0.00 0.00 0.00 70 1011.4
20260507023040 37 0 0.0 3.0 0.00 0.00 0.00 68 1011.4
20260507021555 37 323 3.0 7.0 0.00 0.00 0.00 70 1011.5
20260507020053 37 308 4.0 8.0 0.00 0.00 0.00 70 1011.5
20260507014546 37 315 5.0 11.0 0.00 0.00 0.00 70 1011.4
20260507013048 37 309 7.0 12.0 0.00 0.00 0.00 69 1011.4
20260507011549 37 281 4.0 9.0 0.00 0.00 0.00 67 1011.3
20260507010047 38 328 3.0 6.0 0.00 0.00 0.00 64 1011.3
20260507004544 38 291 4.0 8.0 0.00 0.00 0.00 63 1011.2
20260507003044 38 288 4.0 10.0 0.00 0.00 0.00 64 1011.1
20260507001548 38 304 5.0 9.0 0.00 0.00 0.00 64 1011.1
20260507000048 38 305 6.0 11.0 0.00 0.00 0.00 62 1011.1
20260506234557 39 303 5.0 11.0 0.00 0.00 0.00 65 1011.1
20260506233045 39 252 6.0 13.0 0.00 0.00 0.00 64 1011.2
20260506231541 39 276 8.0 13.0 0.00 0.00 0.00 64 1011.3
20260506230043 39 323 9.0 14.0 0.00 0.00 0.00 63 1011.3
20260506224548 39 297 5.0 15.0 0.00 0.00 0.00 63 1011.3
20260506223050 39 255 8.0 16.0 0.00 0.00 0.00 63 1011.2
20260506221547 40 288 10.0 17.0 0.00 0.00 0.00 60 1011.2
20260506220045 40 264 10.0 16.0 0.00 0.00 0.00 64 1011.0
20260506214547 40 270 12.0 18.0 0.00 0.00 0.00 61 1011.1
20260506213047 40 292 6.0 16.0 0.00 0.00 0.00 60 1011.0
20260506211545 40 287 11.0 17.0 0.00 0.00 0.00 61 1011.0
20260506210054 40 269 11.0 17.0 0.00 0.00 0.00 63 1011.0
20260506204552 40 295 10.0 19.0 0.00 0.00 0.00 62 1011.1
20260506203048 39 307 9.0 18.0 0.00 0.00 0.00 62 1011.1
20260506201546 39 280 11.0 17.0 0.00 0.00 0.00 61 1011.2
20260506194549 38 269 9.0 16.0 0.00 0.00 0.00 62 1011.3
20260506193041 38 284 7.0 13.0 0.00 0.00 0.00 66 1011.4
20260506191548 38 313 6.0 15.0 0.00 0.00 0.00 61 1011.5
20260506190046 38 285 8.0 12.0 0.00 0.00 0.00 63 1011.4
20260506184544 37 279 9.0 14.0 0.00 0.00 0.00 66 1011.4
20260506183059 37 329 5.0 10.0 0.00 0.00 0.00 63 1011.6
20260506181552 36 315 5.0 13.0 0.00 0.00 0.00 63 1011.5
20260506180041 36 332 3.0 10.0 0.00 0.00 0.00 64 1011.4
20260506174545 36 306 3.0 13.0 0.00 0.00 0.00 61 1011.7
20260506173054 36 254 7.0 15.0 0.00 0.00 0.00 64 1011.6
20260506171547 36 303 4.0 14.0 0.00 0.00 0.00 63 1011.7
20260506170054 36 267 4.0 12.0 0.00 0.00 0.00 63 1011.9
20260506164550 36 347 1.0 12.0 0.00 0.00 0.00 59 1011.7
20260506163046 36 295 6.0 14.0 0.00 0.00 0.00 62 1011.8
20260506161551 36 317 5.0 12.0 0.00 0.00 0.00 57 1011.7
20260506160047 36 342 4.0 12.0 0.00 0.00 0.00 57 1011.6
20260506154545 36 340 6.0 13.0 0.00 0.00 0.00 58 1011.4
20260506153048 36 300 6.0 16.0 0.00 0.00 0.00 55 1011.4
20260506151601 36 295 6.0 16.0 0.00 0.00 0.00 60 1011.3
20260506150045 35 319 8.0 17.0 0.00 0.00 0.00 60 1011.4
20260506144544 35 277 9.0 18.0 0.00 0.00 0.00 65 1011.3
20260506143048 34 304 6.0 13.0 0.00 0.00 0.00 67 1011.3
20260506141546 33 300 5.0 12.0 0.00 0.00 0.00 73 1011.3
20260506140056 32 329 5.0 10.0 0.00 0.00 0.00 74 1011.2
20260506134549 32 319 7.0 10.0 0.00 0.00 0.00 77 1011.1
20260506133052 31 311 5.0 10.0 0.00 0.00 0.00 75 1011.2
20260506131552 31 327 5.0 12.0 0.00 0.00 0.00 75 1011.2
20260506124545 31 286 6.0 13.0 0.00 0.00 0.00 76 1011.1
20260506123046 32 332 6.0 12.0 0.00 0.00 0.00 73 1010.8
20260506121543 32 315 5.0 10.0 0.00 0.00 0.00 72 1010.4
20260506120057 32 301 6.0 10.0 0.00 0.00 0.00 74 1010.2
20260506114547 32 309 7.0 12.0 0.00 0.00 0.00 73 1010.0
20260506113045 32 307 5.0 9.0 0.00 0.00 0.00 75 1010.0
20260506111542 32 315 3.0 8.0 0.00 0.00 0.00 74 1009.9
20260506110050 32 311 1.0 8.0 0.00 0.00 0.00 70 1009.8
20260506104548 32 299 4.0 9.0 0.00 0.00 0.00 73 1009.8
20260506103048 32 344 3.0 10.0 0.00 0.00 0.00 71 1009.8
20260506101555 32 286 3.0 9.0 0.00 0.00 0.00 72 1009.9
20260506100048 32 290 3.0 7.0 0.00 0.00 0.00 71 1009.9
20260506094555 32 315 4.0 10.0 0.00 0.00 0.00 72 1009.7